Regional Weather Roundup
Issued by NWS

Home | Current Version | Previous Version | Graphics & Text | Print | Product List | Glossary On
Versions: 1 2 3 4 5 6 7 8 9 10 11 12 13 14 15 16 17 18 19 20 21 22 23 24 25 26 27 28 29 30 31 32 33 34 35 36 37 38 39 40 41 42 43 44 45 46 47 48 49 50
000
ASUS43 KOAX 250102
RWRNE

WEATHER ROUNDUP FOR NEBRASKA
NATIONAL WEATHER SERVICE OMAHA NE
800 PM CDT SAT SEP 24 2016

NOTES: SATELLITE DATA IS BEING USED TO AUGMENT CLOUD COVER ABOVE
       12000 FEET.
       "FAIR" INDICATES FEW OR NO CLOUDS BELOW 12,000 FEET WITH NO
       SIGNIFICANT WEATHER AND/OR OBSTRUCTIONS TO VISIBILITY.

  * THESE STATIONS DO NOT REPORT WEATHER SUCH AS RAIN...SNOW OR FOG.

NEZ001>004-019>022-054>056-250200-
NEBRASKA PANHANDLE

CITY           SKY/WX    TMP DP  RH WIND       PRES   REMARKS
SCOTTSBLUFF    CLOUDY    56  40  55 NW15G24   30.11R
ALLIANCE       CLEAR     55  40  56 NW16      30.08R
CHADRON        CLEAR     54  40  59 W13       30.08R
KIMBALL        CLEAR     55  40  58 NW15G23   30.13R
SIDNEY         LGT RAIN  59  39  47 NW16      30.10R
$$

NEZ057>060-069>072-079>082-250200-
SOUTHWEST NEBRASKA

CITY           SKY/WX    TMP DP  RH WIND       PRES   REMARKS
NORTH PLATTE   CLEAR     66  47  50 CALM      29.98R
IMPERIAL       MOCLDY    66  40  38 CALM      30.00R
LEXINGTON      CLEAR     67  49  52 W3        29.95R
MCCOOK         CLEAR     70  43  37 W5        29.97R
OGALLALA       PTCLDY    65  37  35 NW10      30.01R
$$

NEZ005>010-023>029-035>040-094-250200-
NORTH CENTRAL NEBRASKA

CITY           SKY/WX    TMP DP  RH WIND       PRES   REMARKS
VALENTINE      CLEAR     64  41  42 W18G25    29.96R
AINSWORTH      CLEAR     63  44  49 SW6       29.95R
BROKEN BOW     CLEAR     62  43  49 NW7       29.95R
O`NEILL        CLEAR     67  45  44 SW3       29.92R
ORD            CLEAR     63  49  60 N5        29.92R
THEDFORD       MOCLDY    64  42  44 W6        29.98R
$$

NEZ041-046>049-061>064-073>077-083>087-250200-
SOUTH CENTRAL NEBRASKA

CITY           SKY/WX    TMP DP  RH WIND       PRES   REMARKS
GRAND ISLAND   PTCLDY    69  64  84 S3        29.92R
AURORA         CLOUDY    71  70  96 CALM      29.92R
HASTINGS       CLOUDY    71  63  75 S3        29.93R
HEBRON         CLOUDY    71  69  93 SE9       29.92R
HOLDREGE       CLOUDY    70  45  40 CALM      29.94R
KEARNEY *      PTCLDY    72  50  46 SW8       29.92R
YORK           CLOUDY    72  66  83 S7        29.92R
$$

NEZ011>018-030>034-042>045-250200-
NORTHEAST NEBRASKA

CITY           SKY/WX    TMP DP  RH WIND       PRES   REMARKS
NORFOLK        MOCLDY    71  65  81 S7        29.90R
ALBION         PTCLDY    68  62  82 CALM      29.92R
BLAIR          CLOUDY    71  70  96 SE5       29.92R
FREMONT        CLOUDY    71  70  96 SE6       29.92S
TEKAMAH        CLOUDY    71  70  96 SE6       29.90R
WAYNE          CLOUDY    72  71  95 S5        29.91R
$$

NEZ050>053-065>068-078-088>093-250200-
SOUTHEAST NEBRASKA

CITY           SKY/WX    TMP DP  RH WIND       PRES   REMARKS
LINCOLN        CLOUDY    70  67  90 S8        29.91R
OMAHA EPPLEY   CLOUDY    72  68  87 SE8       29.91R
BEATRICE       CLOUDY    70  69  98 S6        29.92R
FALLS CITY     LGT RAIN  68  68 100 E13       29.94S
NEBRASKA CITY  RAIN      69  66  90 S10       29.92F
PLATTSMOUTH    LGT RAIN  70  66  86 S8        29.91S
$$

NEZ044-045-051>053-067-250200-
OMAHA AREA

CITY           SKY/WX    TMP DP  RH WIND       PRES   REMARKS
OMAHA EPPLEY   CLOUDY    72  68  87 SE8       29.91R
BLAIR          CLOUDY    71  70  96 SE5       29.92R
FREMONT        CLOUDY    71  70  96 SE6       29.92S
MILLARD        LGT RAIN  72  69  89 SE5       29.91R
OFFUTT AFB     LGT RAIN  70  70 100 S7        29.90R
PLATTSMOUTH    LGT RAIN  70  66  86 S8        29.91S
WAHOO          MOCLDY    70  69  96 SE6       29.92R
$$




USA.gov is the U.S. government's official web portal to all federal, state and local government web resources and services.